EHI
0 0 0 0 0 0 0 0 0 0 0 0 0 0 0 0 0 0 0 0 0 0 0 0 0 0 0 0 0 0 0 0 0 0 0 0 0 0
0 0 0 0 0 0 0 0 0 0 0 0 0 0 0 0 0 0 0 0 0 0 0 0 0 0 0 0 0 0 0 0 0 0 0 0 0 0
0 0 0 0 0 0 0 0 0 0 0 0 0 0 0 0 0 0 0 0 0 0 0 0 0 0 0 0 0 0 0 0 0 0 0 0 0 0
0 0 0 0 0 0 0 0 0 0 0 0 0 0 0 0 0 0 0 0 0 0 0 0 0 0 0 0 0 0 0 0 0 0 0 0 0 0
0 0 0 0 0 0 0 0 0 0 0 0 0 0 0 0 0 0 0 0 0 0 0 0 0 0 0 0 0 0 0 0 0 0 0 0 0 0
0 0 0 0 0 0 0 0 0 0 0 0 0 0 0 0 0 0 0 0 0 0 0 0 0 0 0 0 0 0 0 0 0 0 0 0 0 0
0 0 0 0 0 0 0 0 0 0 0 0 0 0 0 0 0 0 0 0 0 0 0 0 0 0 0 0 0 0 0 0 0 0 0 0 0 0
0 0 0 0 0 0 0 0 0 0 0 0 0 0 0 0 0 0 0 0 0 0 0 0 0 0 0 0 0 0 0 0 0 0 0 0 0 0
0 0 0 0 0 0 0 0 0 0 0 0 0 0 0 0 0 0 0 0 0 0 0 0 0 0 0 0 0 0 0 0 0 0 0 0 0 0
0 0 0 0 0 0 0 0 0 0 0 0 0 0 0 0 0 0 0 0 0 0 0 0 0 0 0 0 0 0 0 0 0 0 0 0 0 0
0 0 0 0 0 0 0 0 0 0 0 0 0 0 0 0 0 0 0 0 0 0 0 0 0 0 0 0 0 0 0 0 0 0 0 0 0 0
0 0 0 0 0 0 0 0 0 0 0 0 0 0 0 0 0 0 0 0 0 0 0 0 0 0 0 0 0 0 0 0 0 0 0 0 0 0
0 0 0 0 0 0 0 0 0 0 0 0 0 0 0 0 0 0 0 0 0 0 0 0 0 0 0 0 0 0 0 0 0 0 0 0 0 0
0 0 0 0 0 0 0 0 0 0 0 0 0 0 0 0 0 0 0 0 0 0 0 0 0 0 0 0 0 0 0 0 0 0 0 0 0 0
0 0 0 0 0 0 0 0 0 0 0 0 0 0 0 0 0 0 0 0 0 0 0 0 0 0 0 0 0 0 0 0 0 0 0 0 0 0
0 0 0 0 0 0 0 0 0 0 0 0 0 0 0 0 0 0 0 0 0 0 0 0 0 0 0 0 0 0 0 0 0 0 0 0 0 0
0 0 0 0 0 0 0 0 0 0 0 0 0 0 0 0 0 0 0 0 0 0 0 0 0 0 0 0 0 0 0 0 0 0 0 0 0 0
0 0 0 0 0 0 0 0 0 0 0 0 0 0 0 0 0 0 0 0 0 0 0 0 0 0 0 0 0 0 0 0 0 0 0 0 0 0
0 0 0 0 0 0 0 0 0 0 0 0 0 0 0 0 0 0 0 0 0 0 0 0 0 0 0 0 0 0 0 0 0 0 0 0 0 0
0 0 0 0 0 0 0 0 0 0 0 0 0 0 0 0 0 0 0 0 0 0 0 0 0 0 0 0 0 0 0 0 0 0 0 0 0 0
0 0 0 0 0 0 0 0 0 0 0 0 0 0 0 0 0 0 0 0 0 0 0 0 0 0 0 0 0 0 0 0 0 0 0 0 0 0
0 0 0 0 0 0 0 0 0 0 0 0 0 0 0 0 0 0 0 0 0 0 0 0 0 0 0 0 0 0 0 0 0 0 0 0 0 0
0 0 0 0 0 0 0 0 0 0 0 0 0 0 0 0 0 0 0 0 0 0 0 0 0 0 0 0 0 0 0 0 0 0 0 0 0 0
Wind_Speed
6 6 5 5 4 5 4 4 7 14 13 5 4 4 6 6 13 10 9 19 26 26 27 27 27 26 27 27 27 27 26 26 25 26 27 28 28 29
5 6 6 5 5 5 5 5 6 10 15 5 5 6 8 10 17 13 10 25 26 27 27 27 27 27 27 27 27 27 26 26 26 26 27 27 28 28
7 7 8 8 6 5 5 6 6 7 15 14 6 6 8 10 11 10 10 10 12 24 26 27 27 27 27 26 26 26 26 25 25 25 26 26 27 27
9 8 9 8 8 7 6 7 8 8 11 18 12 7 8 9 10 11 11 11 9 19 25 26 26 26 26 26 26 25 25 24 24 24 24 25 26 26
9 9 10 9 10 8 8 8 8 10 9 13 15 9 7 8 9 10 11 10 11 15 20 22 23 24 24 24 24 24 23 23 22 22 22 23 24 25
9 9 10 10 10 10 9 10 10 10 10 12 13 11 8 7 7 7 8 6 8 9 14 16 20 23 24 24 24 23 22 22 21 21 21 21 21 23
9 9 10 13 17 15 12 9 9 9 9 11 12 11 9 6 7 6 10 8 8 8 8 9 9 8 10 16 20 21 22 21 21 20 20 20 20 21
8 8 10 13 16 22 25 25 21 14 11 11 12 12 12 10 8 8 9 10 9 5 6 7 6 7 7 6 16 21 21 21 21 20 20 20 20 20
8 8 9 10 17 10 17 23 21 25 25 17 15 15 14 11 11 12 12 12 12 6 6 10 7 9 7 10 20 21 21 20 20 19 19 19 19 19
8 9 10 10 11 14 12 12 12 13 17 14 12 14 14 14 13 14 14 12 11 9 7 9 7 7 8 7 17 20 20 19 19 18 17 17 17 17
9 9 11 11 18 25 17 13 13 12 17 23 24 22 25 26 20 10 8 9 10 7 5 6 5 5 5 6 10 16 17 17 16 16 15 14 14 14
8 9 16 18 23 26 15 12 15 13 11 12 14 16 15 15 20 11 8 9 9 6 4 4 4 3 4 3 3 3 5 10 13 13 12 11 11 6
7 6 8 22 26 27 23 13 17 18 10 9 9 9 8 7 7 7 7 7 9 7 3 3 3 3 4 2 2 2 2 3 3 4 7 9 9 7
9 7 10 23 26 26 19 19 25 20 7 7 8 7 6 6 6 6 7 7 8 9 6 5 5 4 3 3 3 2 2 2 2 2 2 5 6 8
10 19 23 26 23 15 18 23 18 8 7 8 7 7 6 6 6 5 5 6 7 7 6 6 6 4 4 4 2 2 2 2 2 1 1 1 1 1
11 15 21 20 16 16 15 11 7 7 8 7 7 6 5 5 5 5 5 4 5 4 4 5 5 5 4 4 3 3 3 2 1 1 1 1 1 1
13 8 5 6 6 6 6 7 6 6 6 6 6 6 6 5 5 4 4 4 4 4 3 2 3 4 4 3 3 4 3 3 2 1 1 1 1 1
16 7 7 7 8 8 8 7 6 6 6 6 6 5 6 6 5 4 4 4 4 4 3 2 2 2 2 3 6 4 3 3 2 2 2 2 2 1
9 7 8 8 8 8 8 8 7 6 5 6 6 5 6 5 5 5 5 4 4 4 3 3 3 3 3 3 4 5 4 3 2 2 2 3 2 2
6 7 8 8 8 8 8 8 7 6 6 6 6 6 5 5 5 5 4 5 4 4 3 2 3 4 5 4 3 3 6 4 3 3 2 2 2 3
8 8 8 8 8 8 8 7 7 7 7 6 6 6 5 5 5 5 5 8 6 3 4 4 5 6 2 2 2 2 2 6 6 4 3 2 2 2
8 9 8 8 8 8 8 7 7 7 7 6 5 5 5 5 5 6 5 5 4 4 4 3 2 2 3 4 4 4 3 2 5 8 8 7 4 4
9 9 8 8 8 8 7 8 8 7 6 6 5 5 5 5 5 5 5 5 4 4 4 3 2 2 3 4 4 4 4 3 2 3 4 9 12 12
Wind_Direction
267 267 263 260 256 254 253 256 281 300 299 265 267 261 269 271 278 281 269 280 286 286 286 286 285 285 285 284 283 280 276 275 275 276 276 276 276 275
266 266 265 262 256 251 249 249 247 275 290 285 269 266 272 282 286 287 280 287 290 290 288 286 284 283 282 281 281 280 277 274 273 273 274 275 274 274
277 273 270 267 262 258 253 252 254 260 282 292 278 269 263 267 276 274 274 275 277 283 285 284 283 282 281 281 279 279 278 276 274 274 275 275 275 274
278 276 274 274 266 263 259 258 261 260 273 288 291 280 268 266 269 269 277 277 271 279 284 284 284 283 282 281 280 279 279 278 277 276 276 276 276 276
273 271 273 272 272 269 263 264 266 270 268 278 286 284 275 269 272 273 272 272 273 278 283 284 285 285 284 283 282 281 280 279 277 276 276 277 277 277
267 265 265 264 267 271 271 266 267 270 271 275 282 285 280 266 264 272 278 264 266 271 275 277 279 283 284 286 286 287 286 283 280 278 278 279 279 279
266 263 262 270 275 282 284 277 272 273 278 281 284 286 283 277 270 267 277 276 266 258 262 265 269 269 274 280 284 285 284 283 281 279 278 278 279 278
272 269 269 278 285 291 294 295 292 286 284 281 283 282 283 278 274 273 277 281 280 241 243 259 250 259 259 254 270 277 278 277 275 275 276 276 278 279
273 274 280 280 293 283 286 289 288 286 285 283 280 280 280 277 276 276 272 271 271 260 251 267 255 258 257 264 273 276 277 276 274 274 275 275 276 277
269 270 274 276 275 284 277 273 269 272 275 276 267 267 269 270 263 265 270 272 269 261 245 264 261 257 261 257 269 272 275 276 275 275 275 275 275 275
269 269 276 276 283 294 294 285 283 278 282 283 282 282 282 285 284 280 274 277 278 268 222 245 259 262 259 257 264 271 273 275 277 278 277 279 279 277
273 268 281 288 293 296 293 286 287 286 281 283 283 284 284 282 285 278 272 276 279 275 222 225 247 250 266 255 259 270 277 280 283 285 283 285 290 285
282 276 272 292 296 297 298 291 289 293 286 284 283 279 274 268 265 259 252 259 269 268 238 228 244 224 235 266 276 260 245 259 277 285 290 293 297 290
289 282 281 294 298 302 303 298 300 304 297 289 284 280 277 274 269 264 258 252 253 262 261 246 248 236 232 236 255 272 270 257 244 249 259 291 298 299
288 294 299 303 306 306 299 300 303 299 290 285 283 280 273 273 275 273 267 263 262 257 255 246 248 249 239 240 236 235 269 278 235 229 247 255 268 297
293 293 299 301 301 298 299 298 287 275 283 283 285 283 282 279 277 276 278 276 274 271 250 239 238 243 247 235 235 237 217 245 266 221 223 261 273 250
302 295 290 292 288 285 283 279 274 278 286 281 282 284 286 284 281 278 272 272 267 267 270 258 238 233 241 240 239 232 220 223 225 211 198 251 270 255
312 303 298 294 292 290 289 288 281 278 279 280 282 282 286 286 285 280 267 264 268 263 254 242 225 219 229 251 232 233 220 220 212 200 191 212 255 253
309 294 291 290 288 286 284 283 282 279 276 278 277 276 278 279 278 279 274 267 266 259 247 227 207 201 218 247 272 227 209 207 190 196 203 207 229 235
284 285 286 286 285 283 284 282 279 279 277 275 273 272 271 274 275 273 272 264 262 257 249 229 215 211 218 223 230 246 218 202 195 206 209 205 237 255
290 287 283 283 283 282 281 280 277 278 276 274 271 269 267 267 269 268 268 275 273 252 245 239 233 235 216 176 225 241 244 221 208 196 183 185 213 222
288 287 285 282 282 281 279 277 276 273 273 270 267 266 265 263 264 266 263 261 255 244 245 249 236 213 188 206 231 239 240 246 240 235 225 207 186 198
287 287 285 284 282 278 275 274 271 271 269 266 264 262 259 261 260 259 261 255 249 248 248 247 230 210 212 214 226 234 235 230 219 227 241 240 239 242